Location: Bishop�s Knoyle
(51.0728°N, 2.1714°W)
Time: 09:29:25
(UTC+00:00)

ISS - Pass Details

Date: 03 October 2021
Orbit: 417 x 423 km, 51.6° (Epoch: 20 October)

Event Time Altitude Azimuth Distance (km) Brightness Sun altitude
Rises 18:20:22 0° 285° (WNW) 2,366 2.0 -6.9°
Reaches altitude 10° 18:22:31 10° 279° (W) 1,500 0.8 -7.2°
Maximum altitude 18:25:45 46° 205° (SSW) 571 -2.9 -7.7°
Drops below altitude 10° 18:29:00 10° 131° (SE) 1,495 -1.4 -8.3°
Enters shadow 18:29:33 - 129° (SE) 1,714 -1.2 -8.3°
